This is the latest recevied weather packets stored in our database for station/object KY4OP-13. If no packets are shown the sender has not sent any weather packets the latest 10 day(s).
| Time | Temp. | Humidity | Pressure | Rain* | Wind** | Luminosity | Snow |
|---|---|---|---|---|---|---|---|
| 1777685833 | 13.33° C | 54% | 1012.8 hPa | 0 mm | - | - | - |
| 1777685528 | 12.78° C | 55% | 1012.9 hPa | 0 mm | - | - | - |
| 1777685226 | 12.78° C | 58% | 1012.9 hPa | 0 mm | - | - | - |
| 1777684924 | 13.33° C | 57% | 1012.7 hPa | 0 mm | - | - | - |
| 1777684620 | 13.33° C | 56% | 1012.9 hPa | 0 mm | - | - | - |
| 1777684316 | 13.33° C | 55% | 1013 hPa | 0 mm | - | - | - |
| 1777684014 | 13.33° C | 55% | 1012.7 hPa | 0 mm | - | - | - |
| 1777683710 | 13.33° C | 55% | 1012.6 hPa | 0 mm | - | - | - |
| 1777683407 | 13.89° C | 54% | 1012.5 hPa | 0 mm | - | - | - |
| 1777683105 | 13.89° C | 54% | 1012.5 hPa | 0 mm | - | - | - |
| 1777682801 | 13.89° C | 54% | 1012.4 hPa | 0 mm | - | - | - |
| 1777682497 | 14.44° C | 53% | 1012.1 hPa | 0 mm | - | - | - |
| 1777682196 | 14.44° C | 53% | 1012.3 hPa | 0 mm | - | - | - |
| 1777681893 | 14.44° C | 51% | 1011.8 hPa | 0 mm | - | - | - |
| 1777681588 | 15° C | 51% | 1011.8 hPa | 0 mm | - | - | - |
| 1777681286 | 15° C | 50% | 1011.7 hPa | 0 mm | - | - | - |
| 1777680984 | 15° C | 50% | 1011.8 hPa | 0 mm | - | - | - |
| 1777680681 | 15.56° C | 50% | 1011.7 hPa | 0 mm | - | - | - |
| 1777680379 | 15.56° C | 49% | 1011.5 hPa | 0 mm | - | - | - |
| 1777680076 | 16.11° C | 46% | 1011.8 hPa | 0 mm | - | - | - |
| 1777679772 | 16.11° C | 46% | 1011.7 hPa | 0 mm | - | - | - |
| 1777679468 | 16.67° C | 46% | 1011.7 hPa | 0 mm | - | - | - |
| 1777679164 | 16.67° C | 47% | 1011.8 hPa | 0 mm | - | - | - |
| 1777678861 | 16.67° C | 45% | 1011.6 hPa | 0 mm | - | - | - |
| 1777678559 | 17.22° C | 44% | 1011.6 hPa | 0 mm | - | - | - |
* Rain latest hour (hover to see other rain measurements)
** Current wind speed in m/s (hover to see current wind gust speed)